Weather in Eugene

United States     44°03′02″N   123°05′29″W
temp.,
°C
wind,
m/s
gust,
m/s
humid.,
%
clouds,
%
prec.,
mm/h
press.,
hPa
HPBL,
m
16 may, sun
sun1623:00+11ese11840 0.0 101511
02:00+9se11900 0.0 101511
05:00+8se11940 0.0 101610
08:00+13wnw00710 0.0 1016208
11:00+21nw22440 0.0 1015732
14:00+25nw33300 0.0 10131233
17:00+26nnw33260 0.0 10111482
20:00+18wnw11650 0.0 101112
17 may, mon
mon1723:00+11sw22900 0.0 101433
02:00+8sw129938 0.0 101636
05:00+10ssw1492100 0.1 1017224
08:00+11ssw2489100 0.1 1018341
11:00+13wsw237295 0.1 1017843
14:00+21w2441100 0.0 10151770
17:00+19w5642100 0.0 10151625
20:00+13wsw37678 0.0 1018783
18 may, tue
tue1823:00+10ssw2890100 0.1 1019545
02:00+9wsw2696100 0.8 1020417
05:00+6sw119831 1.0 102224
08:00+8s1288100 0.0 1023269
11:00+15w124386 0.0 10221794
14:00+16nw4340100 0.0 10202158
17:00+14nw2337100 0.0 10191911
20:00+11nw3653100 0.0 1019332
19 may, wed
wed1923:00+7wnw1167100 0.0 102038
02:00+6w1276100 0.0 102071
05:00+3ssw1191100 0.0 102111
08:00+7w117228 0.0 1021418
11:00+13nw234120 0.0 10191853
14:00+15wnw433399 0.0 10172639
17:00+10wnw488593 0.6 1017469
20:00+8ssw119086 1.3 101725
20 may, thu
thu2023:00+4wsw119486 1.4 101910
02:00+2sw11966 0.0 102010
05:000se119788 0.0 102111
08:00+5n009350 0.0 1021261
11:00+11n135133 0.1 10201462
14:00+15nnw363239 0.0 10182556
17:00+15nw563988 0.0 10172360
20:00+10wnw377117 0.8 1018313